Showing default

QIANFAN-23, 61556

Orbit data source: Space-Track

QIANFAN-23, 61556 is a Chinese payload satellite in LEO that was launched on Tue, 15 Oct 2024 UTC via a CHANG ZHENG 6A launch vehicle from the Taiyaun Space Center, China (TSC). Payload-class satellites include a variety of spacecraft equipped with specific instruments for various scientific and technological missions. These include communications satellites like Starlink; space stations such as the ISS; scientific satellites like the Hubble; Earth observation satellites from companies like Planet Labs, Umbra, and HawkEye 360; GPS; miniature CubeSats for education and research; and military/defense satellites.

Loading next visibility...
Identifier
61556, 2024-185E
Orbit
LEO
Last TLE update
12 hours ago
Origin
Manufacturer
GESIH/SECM
Mission
Operational Commercial Communications
Bus & Motor
QIANFAN, Unknown motor
Mass
267 kg wet, ~267 kg dry
Launch date (UTC)
2024-10-15 (9 months ago)
Launch vehicle
CHANG ZHENG 6A
Launch site
Taiyaun Space Center, China (TSC)
Object type
Payload
Rocket body
Debris
Shape & HBR
Box + 1 Pan, 10 m
Radar Cross Section
13.200 m², Large (>1 m²)

Expand to show TLE details & history

TLE from 12 hours ago
0 QIANFAN-23
1 61556U 24185E   25181.92681028  .00000404  00000-0  19763-3 0  9993
2 61556  88.9831  96.7220 0009830 117.0713 243.1479 14.16057943 46424
Epoch: 2025-06-30T22:14Z
TLE epoch observation values (Epoch: 2025-06-30T22:14:36.408Z)
Latitude
-0.00001°
Longitude
-156.1593°
Altitude
844.973 km
Speed
7.429 km/s
True Right ascension
06h 26m 53s
True Declination
0° 00' 00"
Sunlit
Object was in daylight at epoch
Visualization orbit readout
Latitude
-57.25182°
Longitude
-157.78779°
Altitude
868.027 km
Speed
7.414 km/s
Apparent Right ascension
08h 05m 42s
Apparent Declination
-51° 23' 31"
Sunlit
Object is in daylight
Visualization observer readout
Local Sidereal Time
21:29:03
Azimuth
135.407° SSE
Elevation
-71.569°
Doppler factor
1
Orbital elements
Apogee altitude
842.764 km
Perigee altitude
828.581 km
Semi-major axis
7,213.809 km
Eccentricity
0.00098
Inclination
88.9831°
RAAN
96.722°
Arg. of periapsis
117.0713°
True anomaly
Unknown
Mean anomaly
243.1479°
Eccentric anomaly
Unknown
Mean motion
3.54239 °/min
Orbital period
101.63 mins
BSTAR
0.00019763
Loading maneuver chart data...
Loading SW <> Apogee altitude chart data...
Loading historical data...
Loading historical data...
Loading historical data...
Loading historical data...
Loading historical data...
Loading historical data...
Loading historical data...

QIANFAN-23 Visibility forecast

Observer location: undefined°, undefined°

Span
Click to sort rows by Start time (UTC) header in descending order
Start Az.
Max El. time (UTC)
Max El. Az.
Max El.
End time (UTC)
End Az.
10 mins2025-07-01 18:41:42.719Z175.173° S2025-07-01 18:46:42.719Z139.425° SSE44.695°2025-07-01 18:51:42.719Z0.55° NNE
6 mins2025-07-02 05:22:42.719Z45.298° ENE2025-07-02 05:25:42.719Z83.861° E17.642°2025-07-02 05:28:42.719Z119.435° SE
8 mins2025-07-02 07:03:42.719Z344.512° N2025-07-02 07:07:42.719Z262.634° W37.802°2025-07-02 07:11:42.719Z204.349° SW
|